Location: Pasadena, ca
(34.1243°N, 118.1037°W)
Time: 18:31:51
(UTC-07:00)

Hubble Space Telescope - Pass Details

Date: 07 October 2017
Orbit: 537 x 541 km, 28.5° (Epoch: 18 October)

Event Time Altitude Azimuth Distance (km) Brightness Sun altitude
Exits shadow 05:47:25 20° 238° (WSW) 1,268 2.2 -14.1°
Maximum altitude 05:49:33 33° 188° (S) 912 1.8 -13.7°
Drops below altitude 10° 05:53:18 10° 123° (ESE) 1,788 4.3 -12.9°
Sets 05:55:42 0° 114° (ESE) 2,679 5.6 -12.4°
